Lid_Strength_Index
-0 -0 -1 -1 -1 -1 1 6 9 3 1 9 8 11 9 7 7 6 8 8 10 13 13 14 14 13 11 9 10 11 9 13 14 12 10 8 10 12 12 13 16 15 15 14
-0 -0 -1 -1 -1 -1 4 8 7 3 2 13 11 9 9 8 8 8 8 9 8 10 13 15 13 12 9 9 10 11 9 12 15 14 12 9 12 10 11 13 13 15 16 15
-0 -0 -1 -1 -1 -1 3 7 10 7 6 6 9 10 10 10 7 8 7 8 7 9 12 12 14 13 10 10 10 8 10 12 12 14 12 11 12 11 10 12 15 15 14 12
-0 -1 -1 -1 -1 -1 3 7 9 7 12 10 9 9 9 11 11 8 8 9 9 10 13 13 14 12 12 11 9 11 13 13 11 11 10 10 10 10 10 11 12 13 12 11
-0 -1 -1 -1 -1 -1 5 7 8 6 8 8 9 9 10 10 9 9 10 10 8 8 11 12 14 13 13 13 12 13 13 14 11 12 10 11 12 10 9 10 11 11 11 11
-1 -1 -1 -1 -1 0 5 4 3 6 8 10 11 10 9 10 8 8 7 8 9 10 8 8 9 10 11 11 13 14 15 14 14 13 10 12 14 11 10 10 10 10 12 10
-1 -1 -1 -1 -1 -0 2 3 3 7 11 10 10 8 8 9 8 9 7 7 9 7 4 6 8 10 11 11 12 13 14 15 14 14 12 18 11 9 8 9 9 9 10 9
-1 -1 -1 -1 -1 -1 4 4 4 6 10 8 8 8 8 8 7 8 8 7 6 5 7 11 13 13 14 12 10 12 12 14 15 17 14 12 11 10 10 11 11 9 9 9
-0 -1 -1 -1 -1 -1 3 4 1 5 9 10 7 8 8 10 10 9 8 5 5 7 9 11 16 18 16 15 14 9 11 12 14 16 17 18 11 8 7 8 12 9 8 9
0 -0 -1 -1 -1 -1 2 3 1 4 8 7 7 9 9 7 8 10 8 8 8 7 11 14 16 16 14 17 17 15 14 13 15 16 17 14 10 8 7 12 12 8 8 8
1 -0 -1 -1 -1 -1 1 3 3 4 6 6 5 4 7 7 8 10 9 9 9 10 13 13 13 14 14 15 15 15 15 16 16 16 17 19 8 9 13 10 8 7 8 8
1 0 -1 -1 -1 -1 -1 4 2 1 4 5 3 3 3 4 4 8 7 8 8 8 11 11 11 13 12 14 16 13 15 13 15 14 14 11 9 10 10 10 9 7 7 6
1 -0 -1 -1 -1 -1 -1 2 4 2 5 6 6 6 2 2 3 3 8 7 6 7 6 9 10 13 11 15 14 15 13 11 13 14 10 12 11 10 10 9 10 8 6 7
1 -0 -1 -1 -1 -1 -0 2 4 2 4 9 8 4 5 2 3 4 4 5 5 6 6 8 10 12 8 12 14 14 13 12 14 14 11 11 9 10 10 10 9 10 7 6
0 -0 -1 -1 -1 -0 1 3 3 2 6 10 9 5 4 3 3 4 4 5 7 7 9 9 11 8 9 9 10 12 11 13 14 15 11 12 11 10 9 10 10 9 9 7
0 -0 -0 -0 -1 -1 4 6 3 2 3 8 11 6 6 5 4 4 5 5 6 7 8 9 8 7 9 12 13 11 9 10 10 11 9 10 10 9 8 9 10 9 9 7
0 -0 -0 -0 -1 4 6 6 4 2 4 7 9 10 6 4 5 6 6 6 7 7 8 9 8 8 8 10 13 9 10 9 9 9 9 11 10 11 9 9 9 9 8 7
1 0 -0 0 -0 2 5 4 2 3 6 6 10 11 8 5 8 8 6 8 8 8 9 8 9 8 8 12 8 9 10 9 9 9 8 9 9 9 9 8 8 9 9 8
1 0 0 3 5 6 4 -1 1 4 6 11 10 12 12 5 7 7 8 7 12 8 10 10 9 10 12 9 9 8 8 8 9 9 9 9 9 9 9 9 9 9 9 8
1 2 4 8 5 -0 1 4 6 7 7 8 10 7 10 7 8 8 9 8 10 12 10 8 11 12 8 7 6 6 6 7 8 11 11 10 10 10 10 9 8 8 8 7
5 7 7 4 2 5 7 10 10 9 9 7 7 7 9 6 10 10 9 11 11 13 12 11 12 12 9 7 7 7 6 5 6 7 8 9 9 9 10 9 7 7 7 7
6 5 4 5 5 8 10 13 10 10 11 8 9 8 7 7 7 10 10 12 12 14 9 12 14 10 8 8 7 7 6 7 7 7 7 8 8 8 9 8 7 6 7 7
4 6 7 9 10 12 12 13 12 12 8 7 8 10 8 8 8 10 11 13 15 10 12 14 11 8 8 8 7 6 7 6 7 7 7 6 6 7 8 8 7 6 7 6
8 10 15 13 14 12 10 10 10 8 7 8 9 10 11 7 10 10 13 12 11 15 17 14 10 9 8 7 6 6 6 6 6 7 7 7 5 6 6 7 6 6 7 7
9 11 15 13 9 8 7 7 8 8 8 8 10 10 9 13 13 11 15 16 17 13 14 12 9 8 7 7 6 6 6 6 5 5 6 6 6 5 5 5 6 7 6 6
9 11 12 9 9 9 8 8 8 7 8 7 9 12 13 14 13 13 14 14 17 14 11 9 8 7 6 6 5 6 5 5 5 5 4 4 5 6 5 5 5 5 4 4
11 12 9 9 9 9 8 8 7 7 8 11 10 13 13 11 16 14 12 13 11 11 9 8 7 7 6 5 5 5 5 5 5 5 5 4 4 4 4 5 5 5 5 5